COSMOS 2550

Last updated on Sun Aug 09 2026 00:02:10 GMT+0000 (Coordinated Universal Time)

1 48865U 21056A 26219.66847534 .00002778 00000+0 90201-4 0 9997 2 48865 67.1429 304.1761 0008417 269.8095 90.2095 15.33837597286612
UTC large
Height (km)
Speed (km/s)
/
Latitude / Longitude
Inclination (degrees)
Orbital Period (minutes)
Azimuth
Elevation
Range (km)
Doppler Factor

Next 0 passes for location: London (51.5072 / 0.1276)

No passes found over London.
COSMOS 2550